[[{"header":{"parameterUnit":"m.s-1","parameterCategory":2,"la1":30.2991,"la2":30.254,"lo1":-89.0895,"lo2":-89.0444,"dy":0.0017,"dx":0.0017,"nx":28,"ny":28,"refTime":"2025-06-09T03:00:00:Z","depth":"0","parameterNumber":2,"parameterNumberName":"U-component_of_CURRENTS"},"data":[0,0,0,0,0,0,0,0,0,0,0,0,0,0,0,0,0,0,0,0,0,0,0,0,0,0,0,0,0,0,0,0,0,0,0,0,0,0,0,0,0,0,0,0,0,0,0,0,0,0,0,0,0,0,0,0,0,0,0.3305,0.3307,0,0.3374,0.3373,0.3373,0.3264,0.3262,0.326,0.3258,0.3237,0.3238,0.324,0,0,0,0,0,0,0,0,0,0,0,0,0,0.2982,0.2988,0.3305,0.3308,0.331,0.3374,0.3373,0.3373,0.3264,0.3262,0.3259,0.3257,0.3236,0.3238,0.324,0,0,0,0,0,0,0,0,0,0,0,0,0,0.3078,0.299,0.3305,0.3276,0.3275,0.3374,0.3373,0.3373,0.3265,0.3262,0.3258,0.3255,0.3236,0.3238,0.324,0.332,0,0,0.3247,0.3248,0,0,0,0,0,0,0,0,0.3073,0.3088,0.3278,0.3279,0.3278,0.3322,0.3253,0.3356,0.3266,0.3251,0.3258,0.3254,0.3271,0.327,0.3267,0.3319,0.3318,0.3247,0.3248,0.3249,0.325,0,0,0,0,0,0,0,0.3067,0.3084,0.3315,0.3281,0.3282,0.3228,0.3236,0.327,0.3264,0.3252,0.3249,0.3284,0.3267,0.3265,0.3266,0.3318,0.3247,0.3249,0.325,0.3251,0.347,0.3475,0,0,0,0,0,0,0.3103,0.308,0.3313,0.3319,0.3184,0.3238,0.3247,0.3297,0.3265,0.3263,0.3287,0.3279,0.3263,0.3263,0.3265,0.3342,0.3249,0.3251,0.3253,0.3466,0.3471,0.3476,0,0,0,0,0,0,0.3096,0.3123,0.3311,0.3212,0.3234,0.325,0.3305,0.3301,0.3301,0.3296,0.3287,0.3294,0.326,0.3262,0.3297,0.3341,0.3252,0.3255,0.3461,0.3468,0.3474,0.3508,0,0,0,0,0,0,0.3086,0.3121,0.3163,0.3216,0.3242,0.34,0.331,0.3305,0.3337,0.3326,0.3301,0.3294,0.3258,0.3294,0.3299,0.3342,0.3256,0.3455,0.3464,0.3472,0.3501,0.3515,0.3526,0,0,0,0,0,0.3074,0.3201,0.3165,0.3194,0.3303,0.3406,0.3413,0.3398,0.3341,0.3374,0.3334,0.3295,0.3352,0.3299,0.3304,0.3349,0.3451,0.3461,0.3471,0.3495,0.3512,0.3526,0,0,0,0,0,0,0.3113,0.3204,0.3166,0.3315,0.3353,0.3394,0.3451,0.3419,0.3413,0.3398,0.3338,0.3334,0.3385,0.3388,0.333,0.3448,0.3403,0.3415,0.342,0.3436,0.3448,0.3479,0.3258,0,0,0,0,0,0.3136,0.3237,0.3285,0.3404,0.3426,0.3422,0.3458,0.3451,0.3465,0.3457,0.3423,0.3419,0.3439,0.3447,0.347,0.3533,0.353,0.3579,0.3591,0.3602,0.3639,0.3681,0.3698,0.3509,0.3509,0.3509,0,0,0.3195,0.3256,0.3315,0.3415,0.3434,0.3487,0.3433,0.3523,0.3541,0.3464,0.3472,0.3465,0.3471,0.3522,0.355,0.3521,0.3648,0.3614,0.3622,0.3655,0.3693,0.371,0.3726,0.3516,0.3515,0.3514,0,0,0.3358,0.3397,0.3506,0.3532,0.3593,0.3587,0.3614,0.3639,0.3618,0.3646,0.3593,0.363,0.3632,0.3655,0.3664,0.3787,0.3717,0.3782,0.3859,0.3898,0.3912,0.3925,0.3896,0.3907,0.3783,0.3783,0.3783,0,0.3378,0.3518,0.3556,0.3633,0.3644,0.3627,0.3681,0.3696,0.3718,0.37,0.3663,0.3693,0.371,0.3773,0.3812,0.3816,0.3783,0.3776,0.3908,0.3921,0.3933,0.3902,0.3912,0.3786,0.3785,0.3785,0.3785,0,0.3608,0.3661,0.3736,0.3784,0.3817,0.3882,0.3879,0.3889,0.3838,0.382,0.3854,0.3875,0.3886,0.3911,0.3893,0.3997,0.3923,0.3909,0.3848,0.3953,0.3914,0.3924,0.379,0.3789,0.3788,0.3787,0,0,0.3683,0.3848,0.3841,0.3825,0.3871,0.3903,0.3952,0.3954,0.394,0.3967,0.3955,0.4045,0.4027,0.4048,0.4043,0.4099,0.4159,0.4039,0.404,0.3975,0.4171,0.3851,0.383,0.4127,0.4131,0.4133,0.4087,0,0.3768,0.393,0.3978,0.4016,0.4045,0.401,0.4028,0.4036,0.4013,0.4009,0.4054,0.4058,0.4084,0.4072,0.415,0.4153,0.4196,0.417,0.4114,0.4113,0.3785,0.3837,0.3719,0.3645,0.4097,0.4099,0.41,0,0.3891,0.3958,0.4068,0.4037,0.4039,0.4058,0.4007,0.403,0.4049,0.4031,0.4079,0.4076,0.4183,0.4176,0.4274,0.423,0.4229,0.4235,0.4231,0.3938,0.3813,0.363,0.3646,0.3612,0.4115,0.4114,0.4113,0,0.3878,0.3952,0.4025,0.4032,0.4063,0.4046,0.4023,0.4029,0.3998,0.4047,0.4021,0.4131,0.4129,0.4222,0.4213,0.4246,0.4252,0.4299,0.4016,0.3991,0.3891,0.3848,0.3845,0.4386,0.4386,0.4386,0.4386,0,0.3924,0.3927,0.4011,0.404,0.4001,0.4023,0.3972,0.3978,0.3975,0.3931,0.4026,0.3998,0.4135,0.4123,0.4195,0.4074,0.4234,0.4036,0.3969,0.389,0.385,0.3812,0.3766,0.4384,0.4384,0.4385,0.4385,0,0.3915,0.4005,0.402,0.404,0.4017,0.3984,0.3896,0.3853,0.388,0.3835,0.3841,0.3876,0.3836,0.3891,0.3963,0.3951,0.3802,0.3854,0.3693,0.3605,0.3301,0.3259,0.2986,0.2929,0.359,0.3582,0.3575,0,0.3962,0.3999,0.3996,0.3964,0.3963,0.3898,0.383,0.3808,0.3753,0.3731,0.3692,0.3631,0.3537,0.3461,0.3436,0.3412,0.3435,0.3267,0.3349,0.3249,0.3161,0.3059,0.3032,0.3246,0.3237,0.323,0.3224,0,0.3983,0.3983,0.4006,0.3922,0.385,0.3735,0.3641,0.3572,0.3537,0.3495,0.3372,0.3297,0.3157,0.3013,0.2904,0.2927,0.3082,0.3103,0.3117,0.2961,0.2747,0.2669,0.3271,0.3159,0.3166,0.317,0.3174,0.3177,0.3961,0.3943,0.3948,0.3822,0.3738,0.3552,0.3389,0.3298,0.3161,0.3,0.3047,0.2859,0.2791,0.2596,0.2551,0.2439,0.2495,0.2493,0.2473,0.2398,0.2261,0.2622,0.2335,0.2337,0.2338,0.234,0.2341,0,0.3886,0.3871,0.3809,0.3649,0.3472,0.3449,0.323,0.3029,0.2799,0.2712,0.2558,0.2407,0.2234,0.2202,0.21,0.1964,0.1972,0.1904,0.1912,0.1945,0.2409,0.2318,0.187,0.187,0.187,0.187,0.187,0.1871,0.3866,0.3788,0.372,0.3413,0.3273,0.2926,0.2756,0.2526,0.2383,0.2105,0.1975,0.1941,0.2,0.1856,0.1725,0.1679,0.1645,0.1377,0.1447,0.1962,0.2024,0.2084,0.1998,0.149,0.149,0.1022,0.1018,0.1015]},{"header":{"parameterUnit":"m.s-1","parameterCategory":2,"la1":30.2991,"la2":30.254,"lo1":-89.0895,"lo2":-89.0444,"dy":0.0017,"dx":0.0017,"nx":28,"ny":28,"refTime":"2025-06-09T03:00:00:Z","depth":"0","parameterNumber":3,"parameterNumberName":"V-component_of_CURRENTS"},"data":[0,0,0,0,0,0,0,0,0,0,0,0,0,0,0,0,0,0,0,0,0,0,0,0,0,0,0,0,0,0,0,0,0,0,0,0,0,0,0,0,0,0,0,0,0,0,0,0,0,0,0,0,0,0,0,0,0,0,0.0569,0.0571,0,0.0768,0.077,0.0772,0.0806,0.0804,0.0802,0.0801,0.0959,0.0965,0.0971,0,0,0,0,0,0,0,0,0,0,0,0,0,0.0402,0.0404,0.0569,0.0571,0.0574,0.0767,0.077,0.0773,0.0806,0.0804,0.0802,0.08,0.0957,0.0964,0.0971,0,0,0,0,0,0,0,0,0,0,0,0,0,0.0524,0.0404,0.0568,0.0614,0.0621,0.0767,0.077,0.0774,0.0806,0.0804,0.0801,0.0799,0.0955,0.0964,0.0972,0.1074,0,0,0.0998,0.1002,0,0,0,0,0,0,0,0,0.0517,0.053,0.0605,0.0612,0.0619,0.076,0.077,0.0872,0.0807,0.0735,0.0801,0.0798,0.0891,0.0905,0.0947,0.1082,0.1089,0.0999,0.1004,0.1008,0.1011,0,0,0,0,0,0,0,0.0508,0.0522,0.0647,0.0608,0.0616,0.0688,0.0701,0.079,0.0823,0.0741,0.0744,0.0768,0.0894,0.0939,0.0951,0.1091,0.0999,0.1007,0.1012,0.1015,0.1276,0.1277,0,0,0,0,0,0,0.0478,0.0514,0.0641,0.0653,0.0561,0.0693,0.0707,0.0717,0.0823,0.0838,0.077,0.0769,0.0926,0.0941,0.0957,0.1075,0.1008,0.1016,0.1021,0.1274,0.1276,0.1278,0,0,0,0,0,0,0.0474,0.0487,0.0633,0.0589,0.0613,0.0697,0.0708,0.0722,0.0765,0.0846,0.0859,0.0798,0.0924,0.0945,0.1036,0.1081,0.102,0.1028,0.1272,0.1274,0.1277,0.1317,0,0,0,0,0,0,0.0468,0.0484,0.0489,0.0587,0.0614,0.0732,0.0711,0.0727,0.0784,0.0785,0.0876,0.0887,0.0924,0.1023,0.1045,0.1092,0.1035,0.1269,0.1273,0.1276,0.1313,0.1321,0.1327,0,0,0,0,0,0.0461,0.0494,0.0487,0.0504,0.0614,0.0735,0.0757,0.0808,0.0788,0.0832,0.0874,0.0884,0.1058,0.1033,0.1057,0.1108,0.1268,0.1272,0.1276,0.131,0.1319,0.1327,0,0,0,0,0,0,0.0438,0.0503,0.0498,0.0549,0.0632,0.0741,0.0794,0.0815,0.0888,0.0881,0.0926,0.0945,0.1039,0.1069,0.1039,0.1188,0.1159,0.1168,0.1177,0.1186,0.1192,0.1236,0.1042,0,0,0,0,0,0.0429,0.0463,0.0541,0.0588,0.0624,0.0703,0.0756,0.0793,0.0868,0.0897,0.0956,0.1013,0.1082,0.1125,0.1195,0.1294,0.1284,0.1334,0.1341,0.1346,0.1397,0.1408,0.142,0.1291,0.1291,0.1291,0,0,0.0443,0.0478,0.0502,0.0585,0.0649,0.0746,0.073,0.0825,0.0905,0.0907,0.1025,0.1051,0.1112,0.1212,0.1256,0.124,0.1365,0.1351,0.1356,0.1405,0.1413,0.1426,0.1437,0.1293,0.1293,0.1292,0,0,0.051,0.0509,0.0569,0.0633,0.0726,0.0786,0.0808,0.0914,0.0955,0.1066,0.1073,0.1133,0.1246,0.1303,0.1342,0.1436,0.14,0.1432,0.1513,0.152,0.1531,0.1541,0.1482,0.1487,0.1435,0.1435,0.1435,0,0.0514,0.0592,0.0615,0.0694,0.0762,0.0801,0.0903,0.0971,0.1093,0.1143,0.1107,0.1269,0.1304,0.1433,0.1451,0.1458,0.142,0.1472,0.1528,0.1538,0.1547,0.1486,0.149,0.1437,0.1437,0.1437,0.1437,0,0.0651,0.0696,0.0746,0.0845,0.0924,0.1019,0.1104,0.1179,0.1209,0.1271,0.1385,0.1425,0.1519,0.152,0.152,0.1612,0.1545,0.1529,0.1504,0.1563,0.1493,0.1497,0.1441,0.144,0.1439,0.1439,0,0,0.0689,0.0812,0.0827,0.0878,0.1003,0.1086,0.1215,0.1351,0.1432,0.1504,0.1611,0.17,0.1689,0.1733,0.1723,0.173,0.1725,0.1655,0.1654,0.1591,0.1679,0.1644,0.1643,0.1696,0.1699,0.1701,0.158,0,0.0785,0.0932,0.0985,0.1136,0.1217,0.1282,0.1402,0.1517,0.1589,0.1697,0.1732,0.1819,0.1778,0.1793,0.1809,0.1762,0.1747,0.1756,0.1641,0.1638,0.1596,0.1653,0.1599,0.1491,0.1583,0.1584,0.1584,0,0.0909,0.0978,0.1133,0.1253,0.1298,0.1395,0.1565,0.1677,0.182,0.1865,0.1952,0.1967,0.2029,0.195,0.1926,0.1919,0.1821,0.1757,0.175,0.1728,0.1615,0.1463,0.1494,0.1541,0.159,0.1589,0.1589,0,0.0937,0.1081,0.1196,0.1245,0.14,0.1476,0.1567,0.1725,0.182,0.1959,0.2002,0.2094,0.209,0.205,0.1939,0.1918,0.186,0.181,0.1685,0.1676,0.1625,0.161,0.17,0.1788,0.1788,0.1789,0.1789,0,0.1025,0.1106,0.1203,0.1266,0.1399,0.1493,0.165,0.1753,0.1893,0.1995,0.2066,0.2118,0.2107,0.2074,0.198,0.1854,0.1889,0.1732,0.1675,0.1629,0.1617,0.1651,0.1656,0.1784,0.1785,0.1786,0.1787,0,0.1045,0.1127,0.1235,0.1366,0.1416,0.1503,0.1672,0.1779,0.1885,0.201,0.2042,0.2121,0.2061,0.2024,0.1928,0.187,0.1769,0.1706,0.1629,0.1569,0.1521,0.1527,0.1502,0.1571,0.1567,0.1566,0.1565,0,0.1077,0.113,0.1266,0.1337,0.1394,0.1524,0.1628,0.1773,0.1869,0.1992,0.2037,0.2029,0.2015,0.189,0.1781,0.1639,0.1671,0.1536,0.1533,0.1557,0.1521,0.1496,0.1557,0.1428,0.1426,0.1425,0.1424,0,0.1097,0.1134,0.1223,0.1349,0.1456,0.1574,0.1702,0.177,0.1918,0.1981,0.2018,0.2004,0.187,0.1743,0.1601,0.1506,0.158,0.1498,0.1561,0.1487,0.1427,0.1451,0.1423,0.1409,0.1411,0.1412,0.1413,0.1413,0.1094,0.1147,0.1258,0.1381,0.1492,0.1597,0.1662,0.1764,0.1868,0.1928,0.1944,0.191,0.1812,0.159,0.1485,0.1382,0.1393,0.1369,0.138,0.1357,0.1448,0.1381,0.1295,0.1296,0.1297,0.1297,0.1298,0,0.1103,0.1187,0.1289,0.1437,0.1522,0.1589,0.1704,0.1729,0.1779,0.1861,0.1853,0.185,0.1655,0.1551,0.138,0.1319,0.1307,0.1325,0.1308,0.1388,0.1348,0.1375,0.1259,0.1259,0.1259,0.1259,0.1259,0.1259,0.1137,0.1232,0.1289,0.1433,0.1515,0.1581,0.1617,0.163,0.1685,0.1745,0.181,0.188,0.1961,0.1512,0.1368,0.1338,0.1429,0.1286,0.1428,0.1416,0.1423,0.1429,0.1463,0.1367,0.1367,0.1466,0.1466,0.1467]}],[{"header":{"parameterUnit":"m.s-1","parameterCategory":2,"la1":30.2991,"la2":30.254,"lo1":-89.0895,"lo2":-89.0444,"dy":0.0017,"dx":0.0017,"nx":28,"ny":28,"refTime":"2025-06-09T03:00:00:Z","depth":"2","parameterNumber":2,"parameterNumberName":"U-component_of_CURRENTS"},"data":[0,0,0,0,0,0,0,0,0,0,0,0,0,0,0,0,0,0,0,0,0,0,0,0,0,0,0,0,0,0,0,0,0,0,0,0,0,0,0,0,0,0,0,0,0,0,0,0,0,0,0,0,0,0,0,0,0,0,0.2735,0.2738,0,0.298,0.2982,0.2985,0.3056,0.3055,0.3055,0.3054,0.3116,0.3118,0.3121,0,0,0,0,0,0,0,0,0,0,0,0,0,0.2553,0.2554,0.2735,0.2738,0.2742,0.2979,0.2982,0.2985,0.3057,0.3055,0.3054,0.3053,0.3115,0.3118,0.3121,0,0,0,0,0,0,0,0,0,0,0,0,0,0.2693,0.2554,0.2734,0.2809,0.2819,0.2979,0.2982,0.2986,0.3057,0.3055,0.3054,0.3053,0.3114,0.3118,0.3121,0.3171,0,0,0.3133,0.3134,0,0,0,0,0,0,0,0,0.2685,0.2699,0.2795,0.2805,0.2815,0.299,0.2942,0.304,0.3057,0.2962,0.3054,0.3052,0.3061,0.3069,0.3114,0.3174,0.3177,0.3133,0.3135,0.3137,0.3138,0,0,0,0,0,0,0,0.2675,0.2691,0.2828,0.2799,0.2811,0.2908,0.2924,0.2962,0.3009,0.297,0.2977,0.3012,0.3064,0.3111,0.3116,0.3178,0.3133,0.3136,0.3139,0.314,0.3399,0.3404,0,0,0,0,0,0,0.2644,0.268,0.282,0.2835,0.2751,0.2911,0.2929,0.2932,0.3013,0.3027,0.3012,0.3014,0.3105,0.3111,0.3118,0.3234,0.3137,0.314,0.3143,0.3395,0.34,0.3405,0,0,0,0,0,0,0.2638,0.2652,0.281,0.2769,0.2796,0.2915,0.2918,0.2937,0.2998,0.3048,0.3057,0.3054,0.3104,0.3113,0.3178,0.3233,0.3142,0.3145,0.3389,0.3397,0.3403,0.343,0,0,0,0,0,0,0.2631,0.2648,0.2661,0.2765,0.2797,0.2928,0.2921,0.2943,0.3022,0.3027,0.3087,0.3091,0.3104,0.3173,0.3182,0.3237,0.3148,0.3383,0.3393,0.3401,0.3423,0.3437,0.3449,0,0,0,0,0,0.2623,0.2673,0.2659,0.2678,0.2802,0.2931,0.2958,0.3035,0.3025,0.3077,0.3109,0.309,0.3236,0.3179,0.3189,0.3246,0.3379,0.339,0.34,0.3417,0.3434,0.3449,0,0,0,0,0,0,0.2675,0.2688,0.2675,0.2742,0.2827,0.2945,0.3015,0.3046,0.3118,0.3142,0.313,0.3139,0.3228,0.3245,0.3182,0.3358,0.3313,0.3326,0.3324,0.3339,0.3352,0.3385,0.3151,0,0,0,0,0,0.2667,0.268,0.2731,0.281,0.2823,0.2907,0.2973,0.3049,0.3122,0.3155,0.318,0.3234,0.3284,0.3311,0.3375,0.345,0.3436,0.3507,0.352,0.353,0.3572,0.3604,0.3622,0.344,0.344,0.344,0,0,0.2729,0.2739,0.2758,0.2817,0.2874,0.2959,0.2944,0.3089,0.3182,0.3149,0.3261,0.3281,0.3319,0.3417,0.3459,0.3429,0.3564,0.3543,0.355,0.3588,0.3617,0.3634,0.3649,0.3447,0.3446,0.3445,0,0,0.2845,0.2832,0.2852,0.2913,0.301,0.3066,0.3096,0.3208,0.3255,0.3363,0.3369,0.3436,0.3493,0.3555,0.3578,0.371,0.3635,0.3714,0.3792,0.3822,0.3835,0.3847,0.3781,0.3787,0.3713,0.3713,0.3713,0,0.2893,0.2943,0.2909,0.2963,0.3034,0.3095,0.3187,0.3266,0.3408,0.3429,0.3414,0.3533,0.3578,0.3671,0.3732,0.374,0.3691,0.3708,0.3831,0.3843,0.3855,0.3785,0.3792,0.3716,0.3715,0.3715,0.3715,0,0.298,0.3074,0.3117,0.3154,0.322,0.3359,0.3416,0.35,0.3534,0.3582,0.3672,0.373,0.3783,0.3818,0.3813,0.3927,0.3837,0.3834,0.3769,0.3873,0.3794,0.38,0.3719,0.3718,0.3718,0.3717,0,0,0.2964,0.3123,0.3151,0.3207,0.3346,0.3403,0.354,0.3631,0.3663,0.3782,0.3804,0.3948,0.3933,0.397,0.3975,0.4026,0.4061,0.3964,0.3964,0.3858,0.4027,0.3596,0.3559,0.4036,0.404,0.4042,0.3909,0,0.3045,0.318,0.3244,0.3432,0.3502,0.3588,0.3668,0.377,0.3809,0.3846,0.3917,0.3954,0.3996,0.3994,0.4068,0.4076,0.4089,0.4093,0.3982,0.3979,0.3549,0.3559,0.346,0.3301,0.3914,0.3915,0.3916,0,0.308,0.3178,0.3336,0.3517,0.3533,0.3639,0.3713,0.3814,0.3886,0.3896,0.3963,0.3969,0.4094,0.4083,0.4171,0.4146,0.411,0.4103,0.4096,0.3702,0.356,0.3318,0.3288,0.3925,0.3924,0.3923,0.3923,0,0.3027,0.3247,0.3362,0.3433,0.3614,0.3672,0.3751,0.3825,0.3847,0.3922,0.3906,0.4025,0.4036,0.4104,0.4074,0.4129,0.4069,0.4141,0.3711,0.3677,0.3583,0.3531,0.4181,0.4181,0.4181,0.4182,0.4182,0,0.3066,0.3198,0.3343,0.3425,0.3486,0.3627,0.3685,0.3743,0.3821,0.3811,0.3918,0.3894,0.4039,0.3995,0.4035,0.3815,0.4029,0.3713,0.3622,0.3575,0.3527,0.4091,0.4083,0.4177,0.4178,0.4179,0.418,0,0.3059,0.3164,0.3296,0.3458,0.3479,0.351,0.3618,0.3633,0.3733,0.3725,0.3743,0.3789,0.3737,0.3753,0.3777,0.3659,0.3572,0.3423,0.3276,0.3166,0.3191,0.3187,0.302,0.3004,0.299,0.2979,0.2969,0,0.3106,0.3168,0.3262,0.3258,0.3345,0.3416,0.3427,0.3543,0.3564,0.3629,0.3592,0.3537,0.3411,0.3195,0.3115,0.298,0.3158,0.2631,0.2751,0.3147,0.3078,0.3095,0.3109,0.2655,0.2644,0.2634,0.2627,0,0.3177,0.3172,0.3247,0.3221,0.3212,0.3217,0.3283,0.3246,0.3361,0.3345,0.3265,0.317,0.2973,0.273,0.2435,0.2379,0.2663,0.2415,0.293,0.2882,0.2769,0.271,0.2745,0.2544,0.2552,0.2558,0.2563,0.2566,0.3185,0.321,0.3226,0.3195,0.3159,0.3063,0.2974,0.3004,0.2944,0.2837,0.2882,0.2634,0.2558,0.2062,0.1924,0.1822,0.2036,0.195,0.1998,0.2052,0.1951,0.1811,0.1385,0.1387,0.1388,0.139,0.1391,0,0.3124,0.3182,0.32,0.3107,0.3004,0.3002,0.2897,0.2741,0.2559,0.2455,0.2318,0.1959,0.1709,0.1664,0.1434,0.1275,0.1501,0.116,0.1554,0.1631,0.1701,0.1604,0.0936,0.0934,0.0933,0.0931,0,0,0.3077,0.3063,0.31,0.2968,0.2904,0.263,0.2495,0.2259,0.2123,0.1807,0.1632,0.1592,0.1589,0.1269,0.1195,0.1046,0.1351,0.0981,0.1356,0.1904,0.1973,0.2153,0.2078,0,0,0,0,0]},{"header":{"parameterUnit":"m.s-1","parameterCategory":2,"la1":30.2991,"la2":30.254,"lo1":-89.0895,"lo2":-89.0444,"dy":0.0017,"dx":0.0017,"nx":28,"ny":28,"refTime":"2025-06-09T03:00:00:Z","depth":"2","parameterNumber":3,"parameterNumberName":"V-component_of_CURRENTS"},"data":[0,0,0,0,0,0,0,0,0,0,0,0,0,0,0,0,0,0,0,0,0,0,0,0,0,0,0,0,0,0,0,0,0,0,0,0,0,0,0,0,0,0,0,0,0,0,0,0,0,0,0,0,0,0,0,0,0,0,0.0244,0.0245,0,0.0456,0.046,0.0463,0.059,0.0589,0.0589,0.0588,0.0808,0.0814,0.0821,0,0,0,0,0,0,0,0,0,0,0,0,0,0.0188,0.0188,0.0243,0.0245,0.0246,0.0456,0.046,0.0464,0.059,0.0589,0.0589,0.0588,0.0806,0.0813,0.0821,0,0,0,0,0,0,0,0,0,0,0,0,0,0.03,0.0188,0.0243,0.0325,0.0333,0.0455,0.046,0.0465,0.059,0.0589,0.0588,0.0588,0.0803,0.0813,0.0822,0.0901,0,0,0.0852,0.0856,0,0,0,0,0,0,0,0,0.0293,0.0303,0.0311,0.0319,0.0329,0.0484,0.0521,0.0607,0.0591,0.0507,0.0588,0.0587,0.0692,0.0711,0.0772,0.0911,0.0921,0.0853,0.0858,0.0863,0.0865,0,0,0,0,0,0,0,0.0285,0.0296,0.0341,0.0313,0.0323,0.0433,0.0447,0.054,0.0613,0.0514,0.052,0.0523,0.0699,0.0762,0.0778,0.0924,0.0852,0.0861,0.0867,0.0871,0.1165,0.1167,0,0,0,0,0,0,0.022,0.0287,0.0334,0.0346,0.0293,0.0432,0.0449,0.0446,0.0612,0.0632,0.0524,0.0528,0.0746,0.0766,0.0786,0.0934,0.0862,0.0872,0.0877,0.1163,0.1166,0.1168,0,0,0,0,0,0,0.0218,0.0222,0.0325,0.0312,0.0331,0.0431,0.0429,0.045,0.052,0.0617,0.064,0.0569,0.0747,0.0772,0.0886,0.0941,0.0876,0.0885,0.1161,0.1164,0.1167,0.12,0,0,0,0,0,0,0.0216,0.022,0.0218,0.0307,0.0328,0.0407,0.0429,0.0455,0.0516,0.0524,0.0663,0.0682,0.0748,0.0871,0.0895,0.0953,0.0892,0.1158,0.1162,0.1166,0.1197,0.1204,0.121,0,0,0,0,0,0.0213,0.0224,0.0217,0.0223,0.0314,0.0407,0.0432,0.051,0.0518,0.0567,0.0654,0.0678,0.0911,0.0881,0.0909,0.0971,0.1156,0.1161,0.1166,0.1193,0.1203,0.121,0,0,0,0,0,0,0.0219,0.0238,0.0233,0.0252,0.0316,0.0423,0.0471,0.0511,0.0624,0.0644,0.0717,0.0746,0.0868,0.0908,0.0871,0.1063,0.1034,0.1044,0.1045,0.1055,0.1061,0.1104,0.09,0,0,0,0,0,0.0203,0.0202,0.0254,0.0268,0.0294,0.0378,0.0427,0.049,0.0583,0.0633,0.0726,0.0821,0.0912,0.0968,0.1066,0.1173,0.1157,0.1225,0.1232,0.1238,0.129,0.1291,0.1302,0.1183,0.1183,0.1183,0,0,0.0193,0.0214,0.0206,0.0266,0.0321,0.0409,0.0411,0.0503,0.0607,0.0639,0.0811,0.0861,0.0946,0.1076,0.1132,0.1114,0.1249,0.1244,0.1248,0.1299,0.1297,0.1308,0.1319,0.1186,0.1185,0.1185,0,0,0.0197,0.0204,0.021,0.0276,0.0359,0.0442,0.0459,0.0584,0.0666,0.081,0.0856,0.0941,0.109,0.1172,0.1222,0.1324,0.1288,0.1332,0.141,0.1408,0.1418,0.1427,0.1351,0.1352,0.1332,0.1332,0.1332,0,0.0199,0.0229,0.0236,0.0296,0.0381,0.045,0.0548,0.0647,0.0805,0.0894,0.0871,0.1096,0.1151,0.1303,0.1335,0.1347,0.1301,0.1366,0.1415,0.1424,0.1433,0.1353,0.1355,0.1334,0.1334,0.1334,0.1333,0,0.0185,0.0276,0.0305,0.04,0.0487,0.06,0.0718,0.0844,0.0934,0.1027,0.1192,0.1256,0.1383,0.1393,0.1404,0.1503,0.1431,0.1418,0.1388,0.1446,0.1358,0.1359,0.1337,0.1336,0.1336,0.1335,0,0,0.0122,0.0265,0.0294,0.0404,0.0582,0.0667,0.0851,0.1047,0.1165,0.1287,0.1423,0.1556,0.1558,0.1614,0.1613,0.1614,0.1593,0.154,0.1539,0.1454,0.152,0.1385,0.1372,0.1566,0.1568,0.157,0.1407,0,0.0163,0.0276,0.0365,0.0589,0.0707,0.087,0.1033,0.1211,0.1338,0.1482,0.1554,0.1666,0.1646,0.1672,0.1684,0.1644,0.161,0.1636,0.149,0.1486,0.1351,0.1376,0.1324,0.1171,0.1408,0.1408,0.1408,0,0.0183,0.0283,0.0441,0.0748,0.0807,0.0947,0.1235,0.1391,0.1593,0.1671,0.1784,0.181,0.1891,0.1809,0.1788,0.1793,0.1675,0.1604,0.1595,0.148,0.1358,0.1168,0.1163,0.1409,0.1409,0.1409,0.1409,0,0.0162,0.0408,0.054,0.0628,0.0909,0.1056,0.1231,0.1457,0.1607,0.1774,0.1834,0.1935,0.1949,0.1892,0.1772,0.1771,0.1666,0.164,0.14,0.1384,0.1328,0.1305,0.1586,0.1587,0.1587,0.1588,0.1588,0,0.0225,0.0389,0.0543,0.0632,0.0858,0.1054,0.1309,0.1469,0.1681,0.1823,0.1906,0.1967,0.1964,0.1909,0.1794,0.1599,0.1681,0.1432,0.1359,0.1327,0.1308,0.153,0.1526,0.1581,0.1583,0.1584,0.1585,0,0.0253,0.0321,0.0531,0.0775,0.0862,0.1022,0.1358,0.1524,0.1692,0.1859,0.1904,0.1997,0.1932,0.1862,0.1731,0.1593,0.1439,0.1322,0.1249,0.1172,0.1142,0.1142,0.1073,0.1067,0.1063,0.1059,0.1056,0,0.0281,0.0355,0.0579,0.0679,0.0815,0.1069,0.125,0.1502,0.1665,0.1858,0.1914,0.191,0.1871,0.1636,0.1477,0.1249,0.1281,0.0979,0.1003,0.1167,0.1102,0.1109,0.1115,0.0901,0.0897,0.0894,0.0891,0,0.0362,0.0404,0.0548,0.0732,0.0905,0.1129,0.1394,0.149,0.1751,0.1837,0.1905,0.1869,0.1685,0.1462,0.1166,0.1014,0.1039,0.0894,0.1114,0.104,0.0992,0.0932,0.0946,0.086,0.0863,0.0865,0.0867,0.0868,0.0411,0.0518,0.0649,0.0862,0.1025,0.1206,0.1336,0.1529,0.1692,0.1781,0.1793,0.1678,0.1514,0.1099,0.0912,0.0746,0.0793,0.0665,0.0682,0.0702,0.0712,0.066,0.0461,0.0462,0.0462,0.0463,0.0464,0,0.0464,0.0601,0.0792,0.1001,0.1166,0.1251,0.1456,0.1514,0.1593,0.1627,0.1617,0.1331,0.1094,0.0946,0.0666,0.0472,0.0532,0.0392,0.052,0.0547,0.0573,0.0585,0.0296,0.0295,0.0295,0.0295,0,0,0.0486,0.0644,0.0788,0.1087,0.1237,0.1375,0.1442,0.1435,0.146,0.1377,0.1305,0.1246,0.1068,0.0817,0.0617,0.0461,0.0545,0.0415,0.0552,0.075,0.0779,0.0713,0.0757,0,0,0,0,0]}],[{"header":{"parameterUnit":"m.s-1","parameterCategory":2,"la1":30.2991,"la2":30.254,"lo1":-89.0895,"lo2":-89.0444,"dy":0.0017,"dx":0.0017,"nx":28,"ny":28,"refTime":"2025-06-09T03:00:00:Z","depth":"4","parameterNumber":2,"parameterNumberName":"U-component_of_CURRENTS"},"data":[0,0,0,0,0,0,0,0,0,0,0,0,0,0,0,0,0,0,0,0,0,0,0,0,0,0,0,0,0,0,0,0,0,0,0,0,0,0,0,0,0,0,0,0,0,0,0,0,0,0,0,0,0,0,0,0,0,0,-0.0211,-0.0211,0,-0.0052,-0.0048,-0.0044,0.023,0.0233,0.0236,0.0239,0.0467,0.047,0.0473,0,0,0,0,0,0,0,0,0,0,0,0,0,0.0153,0.0144,-0.0211,-0.0211,-0.0211,-0.0052,-0.0048,-0.0044,0.0229,0.0233,0.0237,0.024,0.0466,0.0469,0.0473,0,0,0,0,0,0,0,0,0,0,0,0,0,0.0142,0.0141,-0.0211,-0.0073,-0.006,-0.0053,-0.0048,-0.0042,0.0228,0.0233,0.0238,0.0242,0.0464,0.0469,0.0474,0.0412,0,0,0.0489,0.0491,0,0,0,0,0,0,0,0,0.0142,0.0131,-0.0093,-0.0082,-0.0069,0.0054,0.0163,0.0105,0.0227,0.0143,0.0239,0.0244,0.0316,0.0334,0.0385,0.0423,0.0433,0.0489,0.0492,0.0494,0.0495,0,0,0,0,0,0,0,0.0142,0.0128,-0.0124,-0.0094,-0.008,0.0128,0.013,0.0157,0.0221,0.0151,0.0165,0.0145,0.0328,0.038,0.0392,0.0436,0.0489,0.0493,0.0496,0.0498,0.0748,0.0752,0,0,0,0,0,0,0.0046,0.0124,-0.013,-0.0122,0.0024,0.0114,0.0118,0.0029,0.022,0.0246,0.0141,0.0157,0.037,0.0386,0.0401,0.0606,0.0494,0.0499,0.0501,0.0745,0.0749,0.0753,0,0,0,0,0,0,0.0052,0.0019,-0.0137,-0.0006,-0.0015,0.0097,-0.0001,0.0029,0.0148,0.0207,0.0241,0.0233,0.0374,0.0394,0.0549,0.0606,0.0501,0.0505,0.074,0.0746,0.0751,0.0843,0,0,0,0,0,0,0.0061,0.0018,0.0008,-0.0018,-0.0027,-0.0082,-0.0007,0.0028,0.0112,0.0138,0.0295,0.0318,0.0379,0.0543,0.0554,0.0611,0.0509,0.0736,0.0743,0.075,0.0835,0.0851,0.0865,0,0,0,0,0,0.0072,-0.0025,0.0004,-0.0021,-0.0079,-0.0083,-0.0062,0.0052,0.0112,0.0178,0.0325,0.0317,0.0595,0.055,0.0563,0.0622,0.0732,0.0741,0.0749,0.0829,0.0848,0.0864,0,0,0,0,0,0,0.0119,-0.001,0.0024,-0.0106,-0.0061,-0.0044,0.0031,0.0067,0.023,0.028,0.0368,0.0403,0.0568,0.0573,0.0522,0.0718,0.0657,0.0669,0.0714,0.0732,0.0747,0.0717,0.0513,0,0,0,0,0,0.011,0.0001,-0.0023,-0.0116,-0.0067,-0.0001,0.0036,0.0076,0.0161,0.0243,0.0394,0.0513,0.0593,0.0651,0.0751,0.0831,0.0761,0.0878,0.0893,0.0905,0.0893,0.0857,0.0866,0.0781,0.0781,0.0781,0,0,0.0091,0.0007,-0.0047,-0.0108,-0.0032,0.0008,0.0045,0.0081,0.014,0.0228,0.0477,0.0586,0.0635,0.0783,0.0848,0.0802,0.0891,0.0915,0.0925,0.0906,0.0867,0.0874,0.088,0.0787,0.0786,0.0785,0,0,0.0006,-0.0034,-0.0088,-0.0056,-0.0012,0.0031,0.0043,0.0152,0.0276,0.0424,0.0536,0.0673,0.0842,0.0906,0.0926,0.1053,0.0986,0.1111,0.1142,0.111,0.1114,0.1118,0.1012,0.1005,0.1098,0.1098,0.1098,0,0.0057,-0.0076,-0.0084,-0.0083,-0.0028,0.0042,0.0091,0.0173,0.0333,0.0452,0.0522,0.081,0.087,0.0962,0.1055,0.1077,0.1046,0.1067,0.1122,0.1124,0.1126,0.1017,0.1008,0.1104,0.1103,0.1102,0.1102,0,-0.0046,-0.0084,-0.009,-0.0068,-0.0002,0.0028,0.0129,0.0286,0.0439,0.0527,0.0758,0.0875,0.103,0.1077,0.111,0.1184,0.1151,0.1155,0.106,0.1139,0.102,0.1009,0.1111,0.1109,0.1108,0.1107,0,0,-0.0067,-0.0133,-0.0118,-0.006,0.0021,0.0059,0.02,0.0364,0.048,0.0676,0.083,0.1004,0.1106,0.1137,0.1205,0.1194,0.1181,0.1211,0.1206,0.1074,0.1082,0.1076,0.1061,0.1225,0.1225,0.1224,0.0981,0,-0.0057,-0.0096,-0.0115,-0.0033,0.0026,0.0154,0.0281,0.0418,0.059,0.0775,0.0864,0.1028,0.1099,0.1195,0.1203,0.1209,0.1166,0.1244,0.1053,0.1044,0.1005,0.1054,0.1224,0.0972,0.0969,0.0967,0.0966,0,-0.0091,-0.0109,-0.0064,0.0032,0.0095,0.0163,0.0435,0.0538,0.0732,0.0867,0.1009,0.1096,0.1155,0.1184,0.1149,0.1219,0.1168,0.1128,0.1117,0.1069,0.1021,0.0889,0.0944,0.0946,0.0948,0.0949,0.095,0,-0.0077,-0.0045,-0.0001,0.0027,0.0138,0.0265,0.0392,0.0606,0.0738,0.0919,0.0995,0.1096,0.1112,0.1106,0.1045,0.113,0.0926,0.0998,0.0907,0.09,0.0928,0.0927,0.0924,0.0924,0.0925,0.0926,0.0926,0,-0.007,-0.0037,0.0015,0.0037,0.0188,0.0291,0.0496,0.0636,0.081,0.0904,0.1039,0.1064,0.1108,0.1017,0.0996,0.0883,0.086,0.0902,0.0855,0.0972,0.0979,0.0916,0.0919,0.0916,0.0918,0.092,0.0922,0,-0.0091,-0.0083,-0.0039,0.0096,0.0168,0.0289,0.0527,0.0674,0.0809,0.0906,0.095,0.1011,0.0956,0.0906,0.0805,0.0775,0.0682,0.0623,0.0657,0.0616,0.0694,0.0705,0.0568,0.0566,0.0564,0.0563,0.0562,0,-0.0121,-0.0118,-0.0011,0.0066,0.0139,0.0328,0.0487,0.0679,0.0776,0.0845,0.0849,0.0839,0.0865,0.0678,0.0652,0.0552,0.0566,0.0449,0.071,0.0698,0.0666,0.0679,0.0691,0.056,0.0559,0.0559,0.0558,0,-0.0158,-0.0135,-0.009,0.0039,0.0198,0.0405,0.0589,0.062,0.0777,0.0826,0.0811,0.0807,0.0708,0.0682,0.0558,0.0498,0.0522,0.0435,0.0443,0.0689,0.0687,0.0659,0.0673,0.0553,0.0554,0.0554,0.0555,0,-0.0176,-0.0159,-0.0104,0.0036,0.0227,0.0458,0.0558,0.0674,0.0779,0.0791,0.0728,0.0718,0.0684,0.0637,0.051,0.0479,0.057,0.0565,0.0568,0.0574,0.0701,0.0707,0.0529,0,0,0,0,0,-0.0169,-0.0154,-0.0079,0.0059,0.0255,0.0418,0.0626,0.0704,0.0706,0.0714,0.0754,0.0693,0.0649,0.0608,0.0599,0.0532,0.0548,0.0511,0.0541,0.0523,0.0529,0.0686,0,0,0,0,0,0,-0.0168,-0.0135,-0.0119,0.0083,0.0208,0.0472,0.0645,0.0681,0.0688,0.065,0.0649,0.0624,0.0602,0.0641,0.0565,0.0553,0.056,0.0486,0.0485,0.052,0.0525,0.053,0.0693,0,0,0,0,0]},{"header":{"parameterUnit":"m.s-1","parameterCategory":2,"la1":30.2991,"la2":30.254,"lo1":-89.0895,"lo2":-89.0444,"dy":0.0017,"dx":0.0017,"nx":28,"ny":28,"refTime":"2025-06-09T03:00:00:Z","depth":"4","parameterNumber":3,"parameterNumberName":"V-component_of_CURRENTS"},"data":[0,0,0,0,0,0,0,0,0,0,0,0,0,0,0,0,0,0,0,0,0,0,0,0,0,0,0,0,0,0,0,0,0,0,0,0,0,0,0,0,0,0,0,0,0,0,0,0,0,0,0,0,0,0,0,0,0,0,0.0313,0.0313,0,0.0219,0.0217,0.0214,0.0057,0.0056,0.0055,0.0054,-0.0023,-0.0024,-0.0025,0,0,0,0,0,0,0,0,0,0,0,0,0,0.0167,0.017,0.0313,0.0313,0.0314,0.022,0.0217,0.0213,0.0057,0.0056,0.0054,0.0053,-0.0023,-0.0024,-0.0025,0,0,0,0,0,0,0,0,0,0,0,0,0,0.0148,0.0171,0.0313,0.024,0.0234,0.0221,0.0216,0.0212,0.0057,0.0055,0.0054,0.0053,-0.0022,-0.0024,-0.0025,-0.0006,0,0,-0.003,-0.0031,0,0,0,0,0,0,0,0,0.015,0.0151,0.025,0.0246,0.0239,0.0167,0.0138,0.0148,0.0057,0.0102,0.0054,0.0052,0.0057,0.0049,0.0004,-0.001,-0.0013,-0.0031,-0.0032,-0.0032,-0.0033,0,0,0,0,0,0,0,0.0151,0.0153,0.0254,0.0252,0.0245,0.015,0.0145,0.0136,0.0073,0.0098,0.0092,0.0115,0.0051,0.0006,0.0002,-0.0014,-0.0031,-0.0032,-0.0033,-0.0034,-0.0105,-0.0106,0,0,0,0,0,0,0.0218,0.0157,0.0258,0.0254,0.0214,0.0156,0.0149,0.0174,0.0072,0.0062,0.0117,0.0109,0.0009,0.0004,-0.0001,-0.0024,-0.0032,-0.0034,-0.0035,-0.0104,-0.0105,-0.0106,0,0,0,0,0,0,0.0215,0.0228,0.0262,0.0218,0.0219,0.0164,0.019,0.0174,0.0149,0.0091,0.0075,0.0115,0.0008,0.0001,-0.0017,-0.0026,-0.0035,-0.0036,-0.0103,-0.0104,-0.0105,-0.0042,0,0,0,0,0,0,0.0211,0.0227,0.0232,0.0224,0.0225,0.0253,0.0194,0.0174,0.0175,0.0163,0.0085,0.0074,0.0006,-0.0014,-0.0018,-0.0028,-0.0037,-0.0102,-0.0103,-0.0105,-0.0043,-0.0041,-0.0039,0,0,0,0,0,0.0206,0.025,0.0232,0.0244,0.0246,0.0256,0.0244,0.0184,0.0178,0.0156,0.0105,0.0077,-0.0029,-0.0015,-0.002,-0.0031,-0.0101,-0.0103,-0.0105,-0.0044,-0.0041,-0.0039,0,0,0,0,0,0,0.0189,0.024,0.022,0.0274,0.0264,0.0238,0.0227,0.0216,0.0157,0.0166,0.0088,0.0073,0.0035,0.0008,0.0026,-0.0062,-0.0077,-0.008,-0.0029,-0.0027,-0.0025,-0.0034,-0.0039,0,0,0,0,0,0.0197,0.0248,0.0255,0.0301,0.0296,0.0268,0.0262,0.0255,0.023,0.0201,0.0131,0.0074,0.002,0.0007,-0.0058,-0.0063,-0.0088,-0.0084,-0.0082,-0.0079,-0.0094,-0.0164,-0.0169,-0.0112,-0.0112,-0.0112,0,0,0.0211,0.025,0.0274,0.0301,0.0281,0.0291,0.0253,0.029,0.0294,0.0213,0.0158,0.0083,0.0016,-0.0039,-0.0055,-0.0053,-0.0094,-0.0082,-0.0079,-0.0095,-0.0167,-0.0172,-0.0177,-0.0114,-0.0114,-0.0113,0,0,0.0268,0.0288,0.0323,0.0336,0.0363,0.0343,0.0372,0.0346,0.0308,0.0287,0.0204,0.0115,0.006,-0.0039,-0.0075,-0.0087,-0.0093,-0.0083,-0.0064,-0.0131,-0.0136,-0.0141,-0.0107,-0.011,-0.0069,-0.0069,-0.0069,0,0.0259,0.0332,0.033,0.0369,0.0395,0.038,0.0415,0.0385,0.0352,0.032,0.0281,0.0109,0.0036,-0.0037,-0.0074,-0.0088,-0.0075,-0.0058,-0.0126,-0.0133,-0.0139,-0.0104,-0.0108,-0.0066,-0.0067,-0.0067,-0.0067,0,0.0341,0.0388,0.0421,0.0455,0.0463,0.0521,0.0503,0.0477,0.044,0.039,0.029,0.0154,0.0055,0.0003,-0.004,-0.0118,-0.0072,-0.0122,-0.0124,-0.014,-0.0102,-0.0107,-0.0062,-0.0063,-0.0064,-0.0065,0,0,0.0366,0.0448,0.0471,0.0493,0.0537,0.0562,0.0564,0.0534,0.0522,0.0422,0.0354,0.0198,0.0122,0.0071,-0.001,-0.0101,-0.0138,-0.0113,-0.0118,-0.0064,-0.0186,-0.0168,-0.0171,-0.0175,-0.0178,-0.018,-0.0114,0,0.0414,0.0513,0.0546,0.0624,0.065,0.0651,0.0646,0.0631,0.0557,0.047,0.0332,0.0243,0.0165,0.0116,0.0014,-0.0139,-0.0159,-0.0146,-0.0195,-0.0195,-0.0167,-0.0183,-0.0187,-0.0118,-0.0119,-0.012,-0.012,0,0.0468,0.0541,0.0635,0.0695,0.0706,0.0764,0.0753,0.0748,0.0643,0.0578,0.0467,0.0362,0.0212,0.0142,-0.0052,-0.0021,-0.0073,-0.0181,-0.0181,-0.0203,-0.0192,-0.0121,-0.013,-0.0129,-0.0129,-0.0128,-0.0127,0,0.0471,0.059,0.0677,0.0718,0.0782,0.0831,0.0851,0.0792,0.0756,0.0661,0.0587,0.044,0.0326,0.0206,0.0009,0.0,-0.02,-0.0234,-0.0236,-0.023,-0.029,-0.0286,-0.0316,-0.0316,-0.0316,-0.0317,-0.0317,0,0.0496,0.0565,0.0718,0.0773,0.0868,0.0905,0.0935,0.0914,0.0852,0.0749,0.067,0.052,0.0324,0.0178,0.0055,-0.0104,-0.0128,-0.0234,-0.0239,-0.0252,-0.0246,-0.0288,-0.0285,-0.0314,-0.0315,-0.0315,-0.0315,0,0.0463,0.0557,0.0668,0.082,0.0869,0.095,0.1005,0.0985,0.0954,0.0809,0.0788,0.0584,0.0387,0.025,0.0014,-0.0057,-0.0203,-0.0218,-0.0145,-0.0146,-0.0174,-0.0169,-0.0212,-0.0212,-0.0211,-0.0211,-0.021,0,0.0446,0.0516,0.0713,0.0784,0.0876,0.0986,0.1016,0.1034,0.0972,0.0781,0.0678,0.0519,0.0362,0.012,-0.0043,-0.0143,-0.0179,-0.0164,-0.0253,-0.0176,-0.0176,-0.0172,-0.0168,-0.021,-0.021,-0.0209,-0.0209,0,0.0432,0.0528,0.0627,0.0788,0.0893,0.0943,0.0985,0.0946,0.0868,0.0829,0.059,0.0453,0.024,0.0064,0.0042,-0.008,-0.0156,-0.016,-0.0163,-0.0247,-0.0174,-0.0173,-0.017,-0.0208,-0.0208,-0.0208,-0.0208,0,0.0433,0.0492,0.0644,0.0769,0.088,0.0889,0.0909,0.0852,0.0821,0.0634,0.0519,0.0326,0.0208,0.0092,-0.0003,-0.004,-0.0084,-0.0096,-0.0103,-0.0106,-0.0124,-0.0019,-0.0013,0,0,0,0,0,0.0429,0.0479,0.059,0.0707,0.0808,0.0869,0.0866,0.0857,0.076,0.0612,0.0593,0.0399,0.022,0.0109,0.0078,-0.0012,-0.0088,-0.0053,-0.0101,-0.0198,-0.02,-0.0243,0,0,0,0,0,0,0.0429,0.0534,0.0571,0.0655,0.0704,0.0783,0.0789,0.0722,0.0652,0.0548,0.0473,0.0398,0.0255,0.0254,0.0075,0.0049,0.0015,-0.0135,-0.0135,-0.0197,-0.0199,-0.0201,-0.0246,0,0,0,0,0]}]]